Flag for Germany Weather past 2 weeks in Darmstadt, Hesse, Germany

Now
68 °F

Clear.


Feels Like: 68 °F
Forecast: 59 / 71 °F
Wind: 7 mph from Northwest

Location: Frankfurt-M-Flughafen Airport

Current Time: Aug 29, 2014 at 10:35:47 PM

Latest Report: Aug 29, 2014 at 9:20 PM


Visibility: 10 mi

Pressure: 30.01 "Hg

Humidity: 78%

Dew point: 61 °F

Location of DarmstadtLocation

Historic Weather in Darmstadt — Graph

°F

Darmstadt temperature yesterday

Maximum temperature yesterday: 75 °F (at 3:20 PM)
Minimum temperature yesterday: 50 °F (at 6:20 AM)
Average temperature yesterday: 63 °F

Past Weeks' High & Low Weather Summary

 TemperatureHumidityPressure
High75 °F (Aug 28, 3:20 PM)100% (Aug 15, 4:20 AM)30.12 "Hg (Aug 15, 4:20 AM)
Low46 °F (Aug 20, 5:20 AM)33% (Aug 22, 4:50 PM)29.65 "Hg (Aug 26, 5:20 AM)
Average60 °F78%29.96 "Hg
* Reported Aug 14 8:20 PM — Aug 29 8:50 PM, Darmstadt, Weather by CustomWeather, © 2014

Note: Actual official high and low records may vary slightly from our data, if they occured in-between our weather recording intervals... More about our weather records

Advertising

Darmstadt weather history for previous 24 hours

 ConditionsComfort  
Time TempWeatherWind HumidityBarometerVisibility
8:50 PM
Aug 29
70 °FSunny.9 mph73%30.01 "Hg10 mi
8:20 PM72 °FSunny.5 mph61%29.98 "Hg10 mi
7:50 PM72 °FSunny.3 mph65%29.98 "Hg10 mi
7:20 PM73 °FSunny.6 mph57%29.98 "Hg10 mi
6:50 PM73 °FSunny.6 mph57%29.98 "Hg10 mi
6:20 PM73 °FSunny.8 mph57%29.98 "Hg10 mi
5:50 PM75 °FSunny.9 mph50%29.98 "Hg10 mi
5:20 PM75 °FSunny.10 mph47%29.98 "Hg10 mi
4:50 PM75 °FPassing clouds.5 mph47%29.98 "HgN/A
4:20 PM73 °FScattered clouds.9 mph53%30.01 "HgN/A
3:50 PM73 °FScattered clouds.6 mph53%30.01 "HgN/A
3:20 PM75 °FScattered clouds.6 mph50%30.01 "HgN/A
2:50 PM75 °FScattered clouds.9 mph54%30.01 "HgN/A
2:20 PM73 °FScattered clouds.8 mph53%30.01 "HgN/A
1:50 PM73 °FScattered clouds.5 mph61%30.04 "HgN/A
1:20 PM73 °FScattered clouds.8 mph61%30.04 "HgN/A
12:50 PM72 °FScattered clouds.6 mph61%30.04 "HgN/A
12:20 PM70 °FScattered clouds.5 mph69%30.04 "HgN/A
11:50 AM70 °FScattered clouds.6 mph69%30.04 "HgN/A
11:20 AM68 °FBroken clouds.7 mph73%30.04 "HgN/A
10:50 AM66 °FBroken clouds.6 mph78%30.04 "HgN/A
10:20 AM66 °FBroken clouds.8 mph78%30.04 "HgN/A
9:50 AM66 °FBroken clouds.8 mph78%30.04 "HgN/A
9:20 AM64 °FBroken clouds.5 mph88%30.01 "HgN/A
8:50 AM64 °FBroken clouds.8 mph88%30.01 "HgN/A
8:20 AM63 °FBroken clouds.7 mph94%30.01 "HgN/A
7:50 AM63 °FBroken clouds.5 mph94%30.01 "HgN/A
7:20 AM63 °FPartly cloudy.6 mph94%29.98 "HgN/A
6:50 AM63 °FPassing clouds.9 mph94%29.98 "HgN/A
6:20 AM63 °FPassing clouds.9 mph94%29.98 "HgN/A
5:50 AM63 °FPartly cloudy.8 mph94%29.98 "HgN/A
5:20 AM63 °FPartly cloudy.7 mph94%29.98 "HgN/A
4:50 AM63 °FClear.3 mph94%29.98 "Hg10 mi
4:20 AM63 °FPartly cloudy.2 mph94%29.98 "HgN/A
3:50 AM61 °FPassing clouds.3 mph94%29.98 "HgN/A
3:20 AM61 °FPassing clouds.2 mph94%29.98 "HgN/A
2:50 AM61 °FPassing clouds.1 mph94%29.98 "HgN/A
2:20 AM61 °FPassing clouds.2 mph94%29.98 "HgN/A
1:50 AM63 °FPartly cloudy.3 mph94%29.98 "HgN/A
1:20 AM61 °FPartly cloudy.3 mph94%29.98 "HgN/A
12:50 AM63 °FPassing clouds.2 mph94%29.98 "HgN/A
12:20 AM63 °FClear.2 mph94%29.98 "Hg10 mi
11:50 PM
Aug 28
64 °FClear.1 mph88%30.01 "Hg10 mi
11:20 PM64 °FClear.2 mph88%30.01 "Hg10 mi
10:50 PM64 °FPassing clouds.5 mph88%30.01 "HgN/A
10:20 PM66 °FPassing clouds.2 mph83%30.01 "HgN/A
Weather by CustomWeather, © 2014

See weather overviewHow to use our weather pages